TimeCDT,TemperatureF,Dew PointF,Humidity,Sea Level PressureIn,VisibilityMPH,Wind Direction,Wind SpeedMPH,Gust SpeedMPH,PrecipitationIn,Events,Conditions,WindDirDegrees,DateUTC
12:15 AM,45.5,34.2,65,29.87,10.0,SSW,3.5,-,N/A,,Overcast,200,2013-03-31 05:15:00
12:35 AM,45.1,34.3,66,29.86,10.0,South,4.6,-,N/A,,Overcast,180,2013-03-31 05:35:00
12:55 AM,45.5,34.3,65,29.86,10.0,SSW,4.6,-,N/A,,Overcast,200,2013-03-31 05:55:00
1:15 AM,44.6,34.2,67,29.85,10.0,South,3.5,-,N/A,,Overcast,190,2013-03-31 06:15:00
1:35 AM,44.4,34.7,69,29.83,10.0,SSW,3.5,-,N/A,,Overcast,210,2013-03-31 06:35:00
1:55 AM,44.6,34.9,69,29.83,10.0,SSW,4.6,-,N/A,,Overcast,210,2013-03-31 06:55:00
2:15 AM,45.0,34.9,68,29.82,10.0,SSW,4.6,-,N/A,,Overcast,210,2013-03-31 07:15:00
2:35 AM,45.0,35.1,68,29.81,10.0,SSW,5.8,-,N/A,,Overcast,210,2013-03-31 07:35:00
2:55 AM,45.0,34.9,68,29.80,10.0,SSW,4.6,-,N/A,,Overcast,210,2013-03-31 07:55:00
3:15 AM,45.0,35.6,70,29.79,10.0,SW,6.9,-,N/A,,Overcast,220,2013-03-31 08:15:00
3:35 AM,45.0,36.1,71,29.79,10.0,SW,8.1,-,N/A,,Overcast,230,2013-03-31 08:35:00
3:55 AM,45.0,37.0,74,29.78,10.0,WSW,8.1,-,N/A,,Overcast,240,2013-03-31 08:55:00
4:15 AM,43.7,39.4,85,29.78,4.0,WSW,9.2,-,N/A,Rain,Light Rain,240,2013-03-31 09:15:00
4:35 AM,43.0,41.0,93,29.77,4.0,WSW,5.8,-,N/A,,Light Drizzle,240,2013-03-31 09:35:00
4:55 AM,43.2,41.5,94,29.77,4.0,WSW,5.8,-,N/A,,Overcast,240,2013-03-31 09:55:00
5:15 AM,43.3,42.3,96,29.77,2.5,WSW,5.8,-,N/A,,Overcast,250,2013-03-31 10:15:00
5:35 AM,43.7,43.0,97,29.77,2.5,West,6.9,-,N/A,,Overcast,260,2013-03-31 10:35:00
5:55 AM,43.9,43.2,97,29.77,3.0,West,9.2,-,N/A,,Overcast,270,2013-03-31 10:55:00
6:15 AM,43.9,43.3,98,29.77,2.5,West,9.2,-,N/A,,Light Drizzle,270,2013-03-31 11:15:00
6:35 AM,43.9,43.3,98,29.77,4.0,West,6.9,-,N/A,,Overcast,270,2013-03-31 11:35:00
6:55 AM,43.9,43.3,98,29.78,4.0,West,6.9,-,N/A,,Overcast,280,2013-03-31 11:55:00
7:15 AM,44.1,43.2,97,29.78,5.0,West,6.9,-,N/A,,Overcast,280,2013-03-31 12:15:00
7:35 AM,44.1,42.3,93,29.76,7.0,West,4.6,-,N/A,,Overcast,280,2013-03-31 12:35:00
7:55 AM,44.1,41.0,89,29.77,7.0,West,8.1,-,N/A,,Mostly Cloudy,280,2013-03-31 12:55:00
8:15 AM,44.4,40.5,86,29.78,10.0,West,10.4,-,N/A,,Mostly Cloudy,280,2013-03-31 13:15:00
8:35 AM,45.0,40.1,83,29.78,10.0,WNW,8.1,-,N/A,,Mostly Cloudy,290,2013-03-31 13:35:00
8:55 AM,46.0,38.8,76,29.77,10.0,West,11.5,18.4,N/A,,Scattered Clouds,280,2013-03-31 13:55:00
9:15 AM,46.4,37.6,71,29.77,10.0,West,12.7,18.4,N/A,,Scattered Clouds,280,2013-03-31 14:15:00
9:55 AM,48.4,37.2,65,29.77,10.0,West,10.4,17.3,N/A,,Clear,280,2013-03-31 14:55:00
10:15 AM,49.5,36.5,61,29.77,10.0,West,5.8,-,N/A,,Clear,280,2013-03-31 15:15:00
10:35 AM,50.0,36.1,59,29.77,10.0,West,10.4,16.1,N/A,,Clear,270,2013-03-31 15:35:00
10:55 AM,50.9,36.1,57,29.77,10.0,West,8.1,-,N/A,,Clear,270,2013-03-31 15:55:00
11:15 AM,52.2,34.9,52,29.76,10.0,SW,12.7,-,N/A,,Clear,230,2013-03-31 16:15:00
11:35 AM,53.6,32.2,44,29.76,10.0,West,6.9,11.5,N/A,,Clear,280,2013-03-31 16:35:00
11:55 AM,54.5,33.4,45,29.76,10.0,West,9.2,18.4,N/A,,Clear,260,2013-03-31 16:55:00
12:15 PM,55.9,32.9,42,29.75,10.0,West,16.1,20.7,N/A,,Clear,270,2013-03-31 17:15:00
12:35 PM,56.3,31.8,39,29.74,10.0,West,18.4,24.2,N/A,,Scattered Clouds,260,2013-03-31 17:35:00
12:55 PM,56.7,32.2,40,29.74,10.0,West,12.7,24.2,N/A,,Clear,260,2013-03-31 17:55:00
1:15 PM,57.2,31.6,38,29.73,10.0,WNW,12.7,21.9,N/A,,Scattered Clouds,290,2013-03-31 18:15:00
1:35 PM,58.3,30.2,34,29.73,10.0,NW,10.4,16.1,N/A,,Scattered Clouds,310,2013-03-31 18:35:00
1:55 PM,58.5,29.1,33,29.72,10.0,West,16.1,24.2,N/A,,Clear,260,2013-03-31 18:55:00
2:15 PM,57.4,30.6,36,29.72,10.0,West,12.7,20.7,N/A,,Clear,270,2013-03-31 19:15:00
2:35 PM,58.5,29.7,33,29.71,10.0,West,13.8,26.5,N/A,,Scattered Clouds,260,2013-03-31 19:35:00
2:55 PM,56.8,31.3,38,29.71,10.0,West,18.4,25.3,N/A,,Mostly Cloudy,280,2013-03-31 19:55:00
3:15 PM,58.1,31.8,37,29.70,10.0,West,17.3,25.3,N/A,,Overcast,280,2013-03-31 20:15:00
3:35 PM,57.0,32.0,39,29.70,10.0,WNW,6.9,24.2,N/A,,Overcast,300,2013-03-31 20:35:00
3:55 PM,56.8,30.9,37,29.70,10.0,West,23.0,27.6,N/A,,Overcast,260,2013-03-31 20:55:00
4:15 PM,56.8,31.1,38,29.69,10.0,West,15.0,23.0,N/A,,Mostly Cloudy,280,2013-03-31 21:15:00
4:35 PM,55.4,31.8,41,29.70,10.0,WNW,12.7,18.4,N/A,,Mostly Cloudy,300,2013-03-31 21:35:00
4:55 PM,55.4,31.3,40,29.70,10.0,WNW,11.5,19.6,N/A,,Overcast,300,2013-03-31 21:55:00
5:15 PM,54.9,29.5,38,29.71,10.0,NW,13.8,25.3,N/A,,Mostly Cloudy,310,2013-03-31 22:15:00
5:35 PM,55.4,28.4,36,29.71,10.0,WNW,15.0,26.5,N/A,,Scattered Clouds,290,2013-03-31 22:35:00
5:55 PM,54.0,27.1,36,29.71,10.0,WNW,13.8,26.5,N/A,,Scattered Clouds,290,2013-03-31 22:55:00
6:15 PM,53.2,25.0,33,29.72,10.0,West,15.0,23.0,N/A,,Clear,280,2013-03-31 23:15:00
6:35 PM,53.1,24.3,33,29.73,10.0,WNW,12.7,19.6,N/A,,Scattered Clouds,300,2013-03-31 23:35:00
6:55 PM,50.4,28.0,42,29.75,10.0,NW,20.7,27.6,N/A,,Scattered Clouds,320,2013-03-31 23:55:00
7:15 PM,45.3,29.1,53,29.76,10.0,NNW,18.4,26.5,N/A,,Scattered Clouds,340,2013-04-01 00:15:00
7:35 PM,42.3,30.6,63,29.78,10.0,NNW,17.3,25.3,N/A,,Scattered Clouds,330,2013-04-01 00:35:00
7:55 PM,40.5,30.0,66,29.79,10.0,NNW,13.8,-,N/A,,Clear,330,2013-04-01 00:55:00
8:15 PM,39.6,29.3,67,29.79,10.0,NNW,12.7,18.4,N/A,,Clear,340,2013-04-01 01:15:00
8:35 PM,38.8,28.8,67,29.80,10.0,NNW,9.2,-,N/A,,Clear,340,2013-04-01 01:35:00
8:55 PM,38.5,28.4,67,29.81,10.0,NNW,12.7,16.1,N/A,,Scattered Clouds,340,2013-04-01 01:55:00
9:15 PM,38.7,28.0,66,29.82,10.0,NNW,10.4,-,N/A,,Mostly Cloudy,330,2013-04-01 02:15:00
9:35 PM,39.2,27.5,63,29.82,10.0,NNW,15.0,19.6,N/A,,Scattered Clouds,330,2013-04-01 02:35:00
9:55 PM,38.7,25.5,59,29.83,10.0,NW,13.8,21.9,N/A,,Scattered Clouds,320,2013-04-01 02:55:00
10:15 PM,38.7,25.3,59,29.83,10.0,NW,13.8,-,N/A,,Mostly Cloudy,320,2013-04-01 03:15:00
10:35 PM,38.5,23.9,56,29.84,10.0,NW,12.7,21.9,N/A,,Scattered Clouds,310,2013-04-01 03:35:00
10:55 PM,38.3,23.9,56,29.84,10.0,NW,13.8,24.2,N/A,,Scattered Clouds,310,2013-04-01 03:55:00
11:15 PM,37.6,24.8,60,29.84,10.0,NW,13.8,23.0,N/A,,Scattered Clouds,310,2013-04-01 04:15:00
11:35 PM,37.6,25.7,62,29.84,10.0,NW,13.8,20.7,N/A,,Scattered Clouds,320,2013-04-01 04:35:00
11:55 PM,36.9,25.9,64,29.85,10.0,NNW,20.7,26.5,N/A,,Overcast,330,2013-04-01 04:55:00